TimeMST,TemperatureF,Dew PointF,Humidity,Sea Level PressureIn,VisibilityMPH,Wind Direction,Wind SpeedMPH,Gust SpeedMPH,PrecipitationIn,Events,Conditions,WindDirDegrees,DateUTC
12:15 AM,50.0,26.6,40,29.97,10.0,East,5.8,-,N/A,,Clear,90,2014-01-30 07:15:00
12:35 AM,50.0,26.6,40,29.96,10.0,ESE,5.8,-,N/A,,Clear,120,2014-01-30 07:35:00
12:55 AM,50.0,28.4,43,29.96,10.0,SE,5.8,-,N/A,,Clear,140,2014-01-30 07:55:00
1:15 AM,50.0,28.4,43,29.96,10.0,SE,5.8,-,N/A,,Clear,140,2014-01-30 08:15:00
1:35 AM,48.2,26.6,43,29.96,10.0,SE,5.8,-,N/A,,Clear,130,2014-01-30 08:35:00
1:55 AM,46.4,26.6,46,29.96,10.0,ESE,8.1,-,N/A,,Clear,110,2014-01-30 08:55:00
2:15 AM,46.4,26.6,46,29.95,10.0,East,9.2,-,N/A,,Clear,100,2014-01-30 09:15:00
2:35 AM,46.4,26.6,46,29.95,10.0,ESE,8.1,-,N/A,,Clear,110,2014-01-30 09:35:00
2:55 AM,50.0,26.6,40,29.94,10.0,ESE,8.1,-,N/A,,Clear,110,2014-01-30 09:55:00
3:15 AM,46.4,24.8,43,29.93,10.0,ESE,8.1,-,N/A,,Clear,110,2014-01-30 10:15:00
3:35 AM,46.4,23.0,40,29.93,10.0,ESE,8.1,-,N/A,,Clear,110,2014-01-30 10:35:00
3:55 AM,46.4,23.0,40,29.93,10.0,ESE,9.2,-,N/A,,Clear,110,2014-01-30 10:55:00
4:15 AM,48.2,23.0,37,29.92,10.0,ESE,9.2,-,N/A,,Clear,120,2014-01-30 11:15:00
4:35 AM,46.4,23.0,40,29.92,10.0,ESE,8.1,-,N/A,,Clear,110,2014-01-30 11:35:00
4:49 AM,48.2,21.2,34,29.92,20.0,ESE,8.1,-,N/A,,Partly Cloudy,110,2014-01-30 11:49:00
4:55 AM,46.4,23.0,40,29.92,10.0,ESE,6.9,-,N/A,,Clear,120,2014-01-30 11:55:00
5:15 AM,44.6,23.0,43,29.93,10.0,ESE,4.6,-,N/A,,Clear,120,2014-01-30 12:15:00
5:47 AM,48.2,23.0,37,29.93,20.0,ESE,8.1,-,N/A,,Partly Cloudy,120,2014-01-30 12:47:00
6:50 AM,46.4,26.6,46,29.93,20.0,SSE,5.8,-,N/A,,Partly Cloudy,160,2014-01-30 13:50:00
7:47 AM,46.4,24.8,43,29.94,20.0,ESE,6.9,-,N/A,,Partly Cloudy,120,2014-01-30 14:47:00
8:48 AM,48.2,26.6,43,29.95,45.0,ESE,5.8,-,N/A,,Mostly Cloudy,110,2014-01-30 15:48:00
9:49 AM,57.2,28.4,33,29.94,45.0,ESE,9.2,-,N/A,,Mostly Cloudy,120,2014-01-30 16:49:00
10:47 AM,64.4,26.6,24,29.95,45.0,SE,8.1,-,N/A,,Scattered Clouds,130,2014-01-30 17:47:00
11:48 AM,71.6,24.8,17,29.93,45.0,SE,8.1,-,N/A,,Mostly Cloudy,140,2014-01-30 18:48:00
12:47 PM,73.4,21.2,14,29.89,45.0,SSE,5.8,-,N/A,,Mostly Cloudy,150,2014-01-30 19:47:00
1:47 PM,75.2,19.4,12,29.85,45.0,Calm,Calm,-,N/A,,Mostly Cloudy,0,2014-01-30 20:47:00
2:47 PM,75.2,21.2,13,29.83,45.0,SW,4.6,-,N/A,,Mostly Cloudy,230,2014-01-30 21:47:00
3:47 PM,75.2,21.2,13,29.82,35.0,Variable,3.5,-,N/A,,Mostly Cloudy,0,2014-01-30 22:47:00
4:47 PM,75.2,21.2,13,29.80,45.0,Calm,Calm,-,N/A,,Mostly Cloudy,0,2014-01-30 23:47:00
5:40 PM,73.4,28.4,19,29.80,35.0,North,4.6,-,N/A,,Overcast,350,2014-01-31 00:40:00
6:50 PM,69.8,26.6,20,29.79,20.0,Calm,Calm,-,N/A,,Mostly Cloudy,0,2014-01-31 01:50:00
7:47 PM,62.6,35.6,37,29.79,20.0,Calm,Calm,-,N/A,,Mostly Cloudy,0,2014-01-31 02:47:00
7:55 PM,62.6,32.0,32,29.80,10.0,Calm,Calm,-,N/A,,Clear,0,2014-01-31 02:55:00
8:15 PM,60.8,32.0,34,29.80,10.0,SE,8.1,-,N/A,,Clear,140,2014-01-31 03:15:00
8:35 PM,62.6,28.4,27,29.80,10.0,SSE,5.8,-,N/A,,Clear,160,2014-01-31 03:35:00
8:55 PM,60.8,30.2,31,29.80,10.0,NE,4.6,-,N/A,,Clear,40,2014-01-31 03:55:00
8:57 PM,62.6,30.2,30,29.80,20.0,ESE,3.5,-,N/A,,Mostly Cloudy,120,2014-01-31 03:57:00
9:15 PM,62.6,30.2,30,29.80,10.0,East,6.9,-,N/A,,Clear,100,2014-01-31 04:15:00
9:35 PM,60.8,28.4,29,29.80,10.0,East,5.8,-,N/A,,Clear,100,2014-01-31 04:35:00
9:47 PM,60.8,28.4,29,29.80,20.0,East,5.8,-,N/A,,Mostly Cloudy,90,2014-01-31 04:47:00
9:55 PM,60.8,28.4,29,29.80,10.0,ESE,9.2,-,N/A,,Clear,110,2014-01-31 04:55:00
10:15 PM,60.8,28.4,29,29.79,10.0,ESE,8.1,-,N/A,,Clear,110,2014-01-31 05:15:00
10:35 PM,62.6,30.2,30,29.79,10.0,ESE,9.2,-,N/A,,Clear,120,2014-01-31 05:35:00
10:47 PM,60.8,28.4,29,29.80,20.0,SE,8.1,-,N/A,,Scattered Clouds,130,2014-01-31 05:47:00
10:55 PM,60.8,32.0,34,29.79,10.0,SE,8.1,-,N/A,,Scattered Clouds,140,2014-01-31 05:55:00
11:15 PM,60.8,32.0,34,29.79,10.0,SSE,6.9,-,N/A,,Clear,160,2014-01-31 06:15:00
11:35 PM,62.6,32.0,32,29.80,10.0,SE,8.1,-,N/A,,Clear,130,2014-01-31 06:35:00
11:52 PM,60.8,30.2,31,29.79,20.0,SE,6.9,-,N/A,,Scattered Clouds,130,2014-01-31 06:52:00
11:55 PM,60.8,30.2,31,29.79,10.0,ESE,5.8,-,N/A,,Scattered Clouds,110,2014-01-31 06:55:00